Date String (YYYY-MM-DD hh:mm:ss) UTC,Instrument flags,absolute air pressure of the measurement (hPa),sample flow rate (lpm),inlet stack bypass flow (lpm),air temperature of the measurement (°C),ambient temperature measured by the external sensor (°C),aerosol sample conditioner tube jacket temperature (°C),OPC LED temperature (°C),internal box temperature (°C),relative humidity of the measurement (%),span deviation,mass concentration of particles derived from Lorenz-Mie calculation of OPC scattering (μg/m³),mass concentration of particles derived from Lorenz-Mie calculation of OPC scattering (μg/m³),mass concentration of particles derived from Lorenz-Mie calculation of OPC scattering (μg/m³)
DateTimeUTC,F1_M11,P_M11,Q1_M11,Q2_M11,T1_M11,T2_M11,T3_M11,T4_M11,T5_M11,U1_M11,ZSPAN_M11,X2_M11,X0_M11,X1_M11
2023-12-28 15:00:00,SystemResetWarning,0833.3,5.00,000.00,018.7,017.6,000.0,027.1,020.0,8.6,0000.0,0000.66,0001.10,0000.48
2023-12-28 15:01:00,SystemResetWarning,0833.3,4.99,000.00,018.7,017.6,000.0,027.1,020.0,8.6,0000.0,0000.71,0001.24,0000.48
2023-12-28 15:02:00,SystemResetWarning,0833.3,4.99,000.00,018.7,017.6,000.0,027.1,020.0,8.6,0000.0,0000.69,0001.22,0000.49
2023-12-28 15:03:00,SystemResetWarning,0833.3,5.00,000.00,018.7,017.6,000.0,027.1,020.0,8.6,0000.0,0000.70,0001.29,0000.50
2023-12-28 15:04:00,SystemResetWarning,0833.3,5.00,000.00,018.7,017.6,000.0,027.1,020.0,8.5,0000.0,0000.70,0001.27,0000.50
2023-12-28 15:05:00,SystemResetWarning,0833.3,5.00,000.00,018.7,017.5,000.0,027.1,020.0,8.5,0000.0,0000.72,0001.32,0000.51
2023-12-28 15:06:00,SystemResetWarning,0833.3,5.00,000.00,018.7,017.5,000.0,027.1,020.0,8.5,0000.0,0000.74,0001.34,0000.53
2023-12-28 15:07:00,SystemResetWarning,0833.4,5.00,000.00,018.7,017.5,000.0,027.1,020.0,8.4,0000.0,0000.73,0001.29,0000.54
2023-12-28 15:08:00,SystemResetWarning,0833.4,5.00,000.00,018.7,017.5,000.0,027.1,020.0,8.3,0000.0,0000.77,0001.32,0000.55
2023-12-28 15:09:00,SystemResetWarning,0833.3,5.00,000.00,018.7,017.5,000.0,027.1,020.0,8.3,0000.0,0000.76,0001.32,0000.55
2023-12-28 15:10:00,SystemResetWarning,0833.4,5.00,000.00,018.7,017.5,000.0,027.1,020.0,8.3,0000.0,0000.77,0001.37,0000.56
2023-12-28 15:11:00,SystemResetWarning,0833.4,4.99,000.00,018.7,017.5,000.0,027.1,020.0,8.3,0000.0,0000.79,0001.40,0000.57
2023-12-28 15:12:00,SystemResetWarning,0833.4,4.99,000.00,018.7,017.5,000.0,027.1,020.0,8.3,0000.0,0000.78,0001.32,0000.59
2023-12-28 15:13:00,SystemResetWarning,0833.4,4.99,000.00,018.7,017.5,000.0,027.1,020.0,8.2,0000.0,0000.78,0001.31,0000.59
2023-12-28 15:14:00,SystemResetWarning,0833.4,5.00,000.00,018.7,017.5,000.0,027.1,020.0,8.2,0000.0,0000.76,0001.17,0000.59
2023-12-28 15:15:00,SystemResetWarning,0833.4,5.00,000.00,018.7,017.5,000.0,027.1,020.0,8.3,0000.0,0000.76,0001.15,0000.59
2023-12-28 15:16:00,SystemResetWarning,0833.4,5.00,000.00,018.6,017.5,000.0,027.1,020.0,8.2,0000.0,0000.71,0001.07,0000.57
2023-12-28 15:17:00,SystemResetWarning,0833.4,5.01,000.00,018.6,017.5,000.0,027.1,020.0,8.2,0000.0,0000.69,0001.04,0000.55
2023-12-28 15:18:00,SystemResetWarning,0833.4,5.01,000.00,018.6,017.5,000.0,027.1,020.0,8.1,0000.0,0000.68,0001.02,0000.54
2023-12-28 15:19:00,SystemResetWarning,0833.4,5.00,000.00,018.6,017.5,000.0,027.1,020.0,8.4,0000.0,0000.63,0000.97,0000.52
2023-12-28 15:20:00,SystemResetWarning,0833.4,5.00,000.00,018.6,017.5,000.0,027.1,020.0,8.4,0000.0,0000.61,0000.92,0000.51
2023-12-28 15:21:00,SystemResetWarning,0833.5,4.99,000.00,018.6,017.5,000.0,027.1,020.0,8.5,0000.0,0000.58,0000.84,0000.49
2023-12-28 15:22:00,SystemResetWarning,0833.5,4.99,000.00,018.6,017.5,000.0,027.1,020.0,8.6,0000.0,0000.55,0000.78,0000.46
2023-12-28 15:23:00,SystemResetWarning,0833.6,5.01,000.00,018.6,017.5,000.0,027.1,020.0,8.7,0000.0,0000.50,0000.71,0000.44
2023-12-28 15:24:00,SystemResetWarning,0833.6,5.01,000.00,018.6,017.5,000.0,027.1,020.0,8.4,0000.0,0000.47,0000.66,0000.41
2023-12-28 15:25:00,SystemResetWarning,0833.7,5.00,000.00,018.6,017.5,000.0,027.1,020.0,8.7,0000.0,0000.47,0000.67,0000.40
2023-12-28 15:26:00,SystemResetWarning,0833.7,4.99,000.00,018.6,017.5,000.0,027.1,020.0,8.7,0000.0,0000.45,0000.66,0000.39
2023-12-28 15:27:00,SystemResetWarning,0833.7,4.99,000.00,018.6,017.5,000.0,027.1,020.0,8.1,0000.0,0000.45,0000.69,0000.39
2023-12-28 15:28:00,SystemResetWarning,0833.7,5.01,000.00,018.6,017.5,000.0,027.1,020.0,8.0,0000.0,0000.46,0000.79,0000.39
2023-12-28 15:29:00,SystemResetWarning,0833.7,5.01,000.00,018.6,017.5,000.0,027.1,020.0,7.9,0000.0,0000.46,0000.77,0000.39
2023-12-28 15:30:00,SystemResetWarning,0833.7,5.00,000.00,018.6,017.6,000.0,027.1,020.0,8.6,0000.0,0000.46,0000.78,0000.40
2023-12-28 15:31:00,SystemResetWarning,0833.7,5.00,000.00,018.6,017.6,000.0,027.1,020.0,9.4,0000.0,0000.50,0000.87,0000.40
2023-12-28 15:32:00,SystemResetWarning,0833.7,4.99,000.00,018.6,017.6,000.0,027.1,020.0,9.1,0000.0,0000.50,0000.87,0000.41
2023-12-28 15:33:00,SystemResetWarning,0833.8,5.00,000.00,018.6,017.6,000.0,027.1,020.0,8.7,0000.0,0000.51,0000.89,0000.41
2023-12-28 15:34:00,SystemResetWarning,0833.8,5.00,000.00,018.6,017.6,000.0,027.1,020.0,9.2,0000.0,0000.51,0000.89,0000.41
2023-12-28 15:35:00,SystemResetWarning,0833.8,5.00,000.00,018.6,017.6,000.0,027.1,020.0,9.4,0000.0,0000.51,0000.87,0000.41
2023-12-28 15:36:00,SystemResetWarning,0833.8,5.00,000.00,018.6,017.6,000.0,027.1,020.0,9.1,0000.0,0000.52,0000.91,0000.41
2023-12-28 15:37:00,SystemResetWarning,0833.8,5.00,000.00,018.6,017.6,000.0,027.1,020.0,9.2,0000.0,0000.55,0000.97,0000.40
2023-12-28 15:38:00,SystemResetWarning,0833.8,5.01,000.00,018.6,017.6,000.0,027.0,020.0,8.9,0000.0,0000.54,0000.91,0000.40
2023-12-28 15:39:00,SystemResetWarning,0833.8,5.00,000.00,018.6,017.6,000.0,027.0,020.0,8.9,0000.0,0000.53,0000.82,0000.40
2023-12-28 15:40:00,SystemResetWarning,0833.8,5.00,000.00,018.6,017.7,000.0,027.0,020.0,9.1,0000.0,0000.54,0000.83,0000.39
2023-12-28 15:41:00,SystemResetWarning,0833.8,5.00,000.00,018.6,017.7,000.0,027.0,020.0,8.9,0000.0,0000.54,0000.81,0000.40
2023-12-28 15:42:00,SystemResetWarning,0833.8,4.99,000.00,018.6,017.7,000.0,027.0,020.0,9.0,0000.0,0000.54,0001.20,0000.40
2023-12-28 15:43:00,SystemResetWarning,0833.9,4.99,000.00,018.6,017.7,000.0,027.0,020.0,9.0,0000.0,0000.57,0001.86,0000.40
2023-12-28 15:44:00,SystemResetWarning,0834.0,5.00,000.00,018.6,017.8,000.0,027.0,020.0,9.1,0000.0,0000.57,0001.86,0000.40
2023-12-28 15:45:00,SystemResetWarning,0834.0,5.00,000.00,018.6,017.8,000.0,027.0,020.0,9.4,0000.0,0000.58,0001.89,0000.41
2023-12-28 15:46:00,SystemResetWarning,0834.0,5.00,000.00,018.6,017.8,000.0,027.0,020.0,9.0,0000.0,0000.60,0001.91,0000.43
2023-12-28 15:47:00,SystemResetWarning,0833.9,5.00,000.00,018.7,017.8,000.0,027.0,020.0,9.3,0000.0,0000.59,0001.87,0000.44
2023-12-28 15:48:00,SystemResetWarning,0834.0,5.00,000.00,018.7,017.9,000.0,027.0,020.0,9.5,0000.0,0000.58,0001.84,0000.45
2023-12-28 15:49:00,SystemResetWarning,0833.9,5.00,000.00,018.7,017.9,000.0,027.0,020.0,9.2,0000.0,0000.59,0001.85,0000.46
2023-12-28 15:50:00,SystemResetWarning,0833.9,5.01,000.00,018.7,017.9,000.0,027.0,020.0,8.9,0000.0,0000.62,0002.03,0000.48
2023-12-28 15:51:00,SystemResetWarning,0833.9,4.99,000.00,018.7,017.9,000.0,027.0,020.0,8.9,0000.0,0000.63,0002.77,0000.50
2023-12-28 15:52:00,SystemResetWarning,0833.9,4.99,000.00,018.7,017.9,000.0,027.0,020.0,9.2,0000.0,0000.64,0002.87,0000.51
2023-12-28 15:53:00,SystemResetWarning,0834.0,4.99,000.00,018.7,017.9,000.0,027.0,020.0,9.0,0000.0,0000.66,0002.50,0000.51
2023-12-28 15:54:00,SystemResetWarning,0833.9,5.01,000.00,018.7,017.9,000.0,027.0,020.0,9.1,0000.0,0000.66,0001.89,0000.53
2023-12-28 15:55:00,SystemResetWarning,0834.0,5.01,000.00,018.7,017.9,000.0,027.0,020.0,9.0,0000.0,0000.68,0001.92,0000.55
2023-12-28 15:56:00,SystemResetWarning,0834.0,5.01,000.00,018.7,017.9,000.0,027.0,020.0,9.1,0000.0,0000.70,0001.93,0000.57
2023-12-28 15:57:00,SystemResetWarning,0833.9,5.00,000.00,018.7,017.9,000.0,027.0,020.0,8.8,0000.0,0000.73,0002.02,0000.58
2023-12-28 15:58:00,SystemResetWarning,0834.0,4.99,000.00,018.7,017.9,000.0,027.0,020.0,9.0,0000.0,0000.76,0002.16,0000.58
2023-12-28 15:59:00,SystemResetWarning,0834.0,4.99,000.00,018.7,017.9,000.0,027.0,020.0,8.9,0000.0,0000.77,0002.15,0000.60
